Regional Weather Roundup
Issued by NWS

Home | Current Version | Previous Version | Text Only | Print | Product List | Glossary Off
Versions: 1 2 3 4 5 6 7 8 9 10 11 12 13 14 15 16 17 18 19 20 21 22 23 24 25 26 27

000
ASUS45 KBOU 192006
RWRCO

WEATHER ROUNDUP FOR COLORADO
NATIONAL WEATHER SERVICE DENVER/BOULDER CO
200 PM MDT SAT APR 19 2014

NOTE: "FAIR" INDICATES FEW OR NO CLOUDS BELOW 12000 FEET WITH NO
SIGNIFICANT WEATHER AND/OR OBSTRUCTIONS TO VISIBILITY.

COZ001>005-013-030-031-192100-
...NORTHWEST COLORADO...

CITY           SKY/WX    TMP DP  RH WIND       PRES   REMARKS
CRAIG          CLOUDY    58  39  49 W13       30.09S
HAYDEN         CLOUDY    55  36  47 CALM      30.13S
MEEKER         CLOUDY    52  41  66 W8        30.13F
MOUNT WERNER   PTSUNNY   45  27  49 W8        30.26S
STEAMBOAT SPGS PTSUNNY   57  27  32 CALM      30.10S
WALDEN         CLOUDY    54  30  40 W9        30.13F
$$

COZ006>008-011-192100-
...WEST CENTRAL VALLEYS...

CITY           SKY/WX    TMP DP  RH WIND       PRES   REMARKS
GRAND JUNCTION PTSUNNY   60  46  59 NW8       30.08F
MONTROSE       PTSUNNY   58  42  55 N9        30.12S
EAGLE          PTSUNNY   61  34  36 SW9       30.08F
RIFLE          CLOUDY    60  39  45 W16       30.08F
DELTA          CLOUDY    64  39  39 CALM      30.09S
NUCLA            N/A     57  41  54 SW16      30.15F
$$

COZ017>023-064>068-192100-
...SOUTHWEST COLORADO...

CITY           SKY/WX    TMP DP  RH WIND       PRES   REMARKS
DURANGO        PTSUNNY   60  34  37 SW7       30.12F
CORTEZ         MOSUNNY   63  34  33 SW9       30.10F
PAGOSA SPRINGS PTSUNNY   54  38  55 N10G18    30.17F
TELLURIDE      NOT AVBL
WOLF CREEK PAS CLOUDY    32  30  93 W7G16     30.32S FOG     WCI  26
$$

COZ009-010-012-014-032>034-037-058>063-192100-
...CENTRAL COLORADO...

CITY           SKY/WX    TMP DP  RH WIND       PRES   REMARKS
ASPEN          PTSUNNY   58  31  35 VRB3      30.10F
BUENA VISTA    PTSUNNY   61  28  28 SE15G21   30.11F
COPPER MTN     CLOUDY    37  30  75 SE14G23   30.29R
BERTHOUD PASS  FLURRIES  32  23  69 MISG      30.33S
COTTONWOOD PAS PTSUNNY   54  32  43 SE10G21   30.20F
GUNNISON       PTSUNNY   55  28  35 S13       30.17F
KREMMLING      MOSUNNY   59  30  33 SW5       30.11F
LEADVILLE      CLOUDY    42  30  62 S13       30.20R
MONARCH PASS   LGT RAIN  36  27  69 W13G25    30.41R
SALIDA         CLOUDY    62  33  34 S7        30.16F
SUNLIGHT       CLOUDY    43  34  70 S6        30.26F
WILKERSON PASS MIX PCPN  36  32  87 S5        30.31S
$$

COZ069>075-192100-
...SAN LUIS VALLEY/SANGRE DE CRISTO MOUNTAINS...

CITY           SKY/WX    TMP DP  RH WIND       PRES   REMARKS
ALAMOSA        MOSUNNY   61  27  27 SW6       30.10F
LA VETA PASS   MOSUNNY   54  28  37 SW6G20    30.23S
SAGUACHE       MOSUNNY   61  28  29 NE5       30.12F
$$

COZ035-036-038>040-192100-
...NORTHERN COLORADO FRONT RANGE...

CITY           SKY/WX    TMP DP  RH WIND       PRES   REMARKS
DENVER INTL AP PTSUNNY   63  38  39 E13       30.06S
DMNS CITY PARK   N/A     65  35  32 E7G15     30.03F
AURORA         PTSUNNY   64  34  32 E9        30.06F
FRONT RANGE AP CLOUDY    66  39  37 E14       30.07F
ERIE MUNI ARPT PTSUNNY   64  35  34 NE3       30.04F
BOULDER MUN AP CLOUDY    63  36  36 E5        30.04F
CENTENNIAL     PTSUNNY   64  35  34 E12G17    30.06S
BROOMFIELD     PTSUNNY   64  36  34 VRB3      30.06F
FORT COLLINS   PTSUNNY   64  41  42 SE7       30.06F
LONGMONT       PTSUNNY   69  38  32 SE5       30.06F
$$

COZ041-046-047-076>085-087-088-192100-
...PIKES PEAK/PALMER DIVIDE AND SOUTHERN FOOTHILLS...

CITY           SKY/WX    TMP DP  RH WIND       PRES   REMARKS
COLO. SPRINGS  PTSUNNY   65  28  24 E7G18     30.08R
A. F. ACADEMY  MOSUNNY   61  31  32 NE9       30.09R
ELLICOTT       NOT AVBL
FALCON         CLOUDY    63  30  28 E10G18    30.12S
FORT CARSON    CLOUDY    66  30  26 NE15      30.05S
LIMON          CLOUDY    66  36  32 NE17      30.05R
MONUMENT HILL  CLOUDY    55  32  41 E9        30.12S
TRINIDAD       CLOUDY    72  31  22 N14       30.00F
$$

COZ042>045-048>051-090-091-192100-
...NORTHEAST COLORADO...

CITY           SKY/WX    TMP DP  RH WIND       PRES   REMARKS
GREELEY ARPT   PTSUNNY   64  41  42 E9        30.06F
AKRON          CLOUDY    62  39  42 NE10G18   30.05F
BURLINGTON     MOSUNNY   70  42  36 NE23      29.99S
WRAY           MOSUNNY   66  40  38 N13G23    30.03S
STERLING       CLOUDY    61  41  48 NE6       30.06S
HOLYOKE        PTSUNNY   64  36  34 NE12      30.04S
FORT MORGAN    CLOUDY    60  36  41 NE10      30.07S
$$

COZ086-089-092>099-192100-
...SOUTHEAST COLORADO...

CITY           SKY/WX    TMP DP  RH WIND       PRES   REMARKS
PUEBLO         MOSUNNY   74  31  20 NE9G21    29.97F
LA JUNTA       SUNNY     78  29  16 VRB5      29.94F
LAMAR          SUNNY     80  33  18 MISG      29.91S
SPRINGFIELD      N/A     81  27  14 SW21G33   29.94F
$$



USA.gov is the U.S. government's official web portal to all federal, state and local government web resources and services.